Weather in Loza

Russia / Udmurt Republic     57°21′58″N   53°00′48″E
temp.,
°C
wind,
m/s
gust,
m/s
humid.,
%
clouds,
%
prec.,
mm/h
press.,
hPa
HPBL,
m
7 march, sun
sun701:00−16w129789 0.1 101120
04:00−17sw119887 0.1 101120
07:00−17wsw129894 0.1 101029
10:00−13wsw139191 0.1 1010258
13:00−10wsw238399 0.1 1009806
16:00−10sw2484100 0.2 1007652
19:00−13s2396100 0.1 100761
22:00−15sse279995 0.1 1006167
8 march, mon
mon801:00−14sse4997100 0.1 1002327
04:00−13sse41095100 0.7 1000506
07:00−12se51194100 0.9 996562
10:00−10se51193100 1.8 994564
13:00−5se5994100 0.9 992617
16:00−6ssw61086100 2.5 992929
19:00−8wsw2597100 0.2 994153
22:00−9wnw5992100 0.6 998442
9 march, tue
tue901:00−13w2398100 0.1 100056
04:00−15wsw129898 0.1 100220
07:00−16wnw119899 0.0 100220
10:00−11nw239290 0.1 1003266
13:00−9wnw358697 0.0 1005726
16:00−10nw358599 0.1 1007820
19:00−14nw2596100 0.1 1008126
22:00−15nne269796 0.1 1010162
10 march, wed
wed1001:00−19nne389786 0.0 1011231
04:00−22nne379692 0.1 1013244
07:00−26n389691 0.0 1014192
10:00−24n369053 0.0 1016283
13:00−19n36830 0.0 1016494
16:00−17nnw36810 0.0 1015656
19:00−23nw369436 0.0 1016122
22:00−24nw389719 0.0 1017161
11 march, thu
thu1101:00−24wnw389834 0.0 1016162
04:00−25w3710065 0.0 1017191
07:00−23w41098100 0.0 1016264
10:00−20w4895100 0.1 1016336
13:00−16w4791100 0.1 1016449
16:00−14w4890100 0.1 1016599
19:00−13w31095100 0.1 1017349
22:00−11wnw3995100 0.3 1019359